Location: Ballingbuur
(53.0000°N, 5.7667°E)
Time: 06:52:53
(UTC+00:00)

Lacrosse 4 Rocket - Pass Details

Date: 29 November 2020
Orbit: 537 x 620 km, 68.0° (Epoch: 23 January)

Event Time Altitude Azimuth Distance (km) Brightness Sun altitude
Exits shadow 05:14:42 12° 215° (SW) 1,796 3.7 -18.6°
Drops below altitude 10° 05:15:17 10° 209° (SSW) 1,945 3.9 -18.5°
Sets 05:18:09 0° 190° (S) 2,857 5.0 -18.1°
